St. Charles, IL

10:01 PM CDT on May 25, 2017 (GMT -0500)
Saint Charles County Smartt

Weather History for KSET - March, 2013

Change the Weather History Date:

Friday, March 29, 2013

  Actual Average (KSTL) Record (KSTL)
Temperature  
Mean Temperature 48 °F -  
Max Temperature 61 °F 59 °F 88 °F (1963)
Min Temperature 37 °F 42 °F 21 °F (1970)
Degree Days  
Heating Degree Days 16    
Moisture  
Dew Point 41 °F    
Average Humidity 74    
Maximum Humidity 89    
Minimum Humidity 55    
Precipitation  
Precipitation 0.00 in - - ()
Sea Level Pressure  
Sea Level Pressure 30.22 in    
Wind  
Wind Speed 7 mph (ENE)    
Max Wind Speed 12 mph    
Max Gust Speed -    
Visibility 9 miles    
Events      
Averages and records for this station are not official NWS values.
T = Trace of Precipitation, MM = Missing Value Source: NWS Daily Summary

Daily Weather History Graph

Daily Weather History Graph

Search for Another Location

Airport or City:

Trip Planner

Search our weather history database for the weather conditions in past years. The results will help you decide how hot, cold, wet, or windy it might be!

Date:

Astronomy

Mar. 29, 2013 Rise Set
Actual Time 6:50 AM CDT 7:22 PM CDT
Civil Twilight 6:23 AM CDT 7:49 PM CDT
Nautical Twilight 5:52 AM CDT 8:21 PM CDT
Astronomical Twilight 5:20 AM CDT 8:53 PM CDT
Moon 10:21 PM CDT (3/29) 8:01 AM CDT (3/29)
Length of Visible Light 13h 25m
Length of Day
12h 32m
Waning Gibbous, 93% of the Moon is Illuminated
Mar 29
Waning Gibbous
Apr 2
Last Quarter
Apr 10
New
Apr 18
First Quarter
Apr 25
Full

Hourly Weather History & Observations

Time (CDT) Temp. Windchill Dew Point Humidity Pressure Visibility Wind Dir Wind Speed Gust Speed Precip Events Conditions
12:54 AM 44.1 °F 39.5 °F 37.9 °F 79% 30.25 in 10.0 mi East 8.1 mph - N/A   Overcast
1:54 AM 43.0 °F 38.2 °F 37.9 °F 82% 30.24 in 10.0 mi East 8.1 mph - N/A   Overcast
2:54 AM 43.0 °F 38.2 °F 37.9 °F 82% 30.23 in 10.0 mi East 8.1 mph - N/A   Mostly Cloudy
3:54 AM 42.1 °F 36.6 °F 37.0 °F 82% 30.22 in 10.0 mi East 9.2 mph - N/A   Scattered Clouds
4:54 AM 39.9 °F 34.5 °F 36.0 °F 86% 30.22 in 9.0 mi East 8.1 mph - N/A   Partly Cloudy
5:54 AM 39.0 °F 33.4 °F 36.0 °F 89% 30.22 in 8.0 mi East 8.1 mph - N/A   Partly Cloudy
6:54 AM 37.9 °F 32.1 °F 35.1 °F 89% 30.23 in 6.0 mi East 8.1 mph - N/A   Clear
7:54 AM 42.1 °F 38.4 °F 39.0 °F 89% 30.25 in 5.0 mi East 5.8 mph - N/A   Clear
8:54 AM 46.9 °F - 41.0 °F 80% 30.25 in 8.0 mi East 11.5 mph - N/A   Clear
9:54 AM 48.9 °F - 42.1 °F 77% 30.25 in 9.0 mi ESE 9.2 mph - N/A   Clear
10:54 AM 52.0 °F - 43.0 °F 71% 30.25 in 10.0 mi East 3.5 mph - N/A   Clear
11:54 AM 55.0 °F - 45.0 °F 69% 30.24 in 10.0 mi East 6.9 mph - N/A   Clear
12:54 PM 57.0 °F - 44.1 °F 62% 30.23 in 10.0 mi Variable 3.5 mph - N/A   Partly Cloudy
1:54 PM 59.0 °F - 45.0 °F 60% 30.22 in 10.0 mi Variable 5.8 mph - N/A   Mostly Cloudy
2:54 PM 57.9 °F - 45.0 °F 62% 30.21 in 10.0 mi NNE 8.1 mph - N/A   Mostly Cloudy
3:54 PM 59.0 °F - 44.1 °F 58% 30.20 in 10.0 mi ENE 3.5 mph - N/A   Partly Cloudy
4:54 PM 60.1 °F - 44.1 °F 55% 30.19 in 10.0 mi ENE 6.9 mph - N/A   Partly Cloudy
5:54 PM 57.9 °F - 42.1 °F 56% 30.19 in 10.0 mi NNE 3.5 mph - N/A   Clear
6:54 PM 55.9 °F - 45.0 °F 67% 30.19 in 10.0 mi ENE 5.8 mph - N/A   Clear
7:54 PM 52.0 °F - 42.1 °F 69% 30.20 in 10.0 mi NE 4.6 mph - N/A   Clear
8:54 PM 48.0 °F - 42.1 °F 80% 30.22 in 10.0 mi NE 5.8 mph - N/A   Clear
9:54 PM 48.0 °F - 41.0 °F 77% 30.22 in 10.0 mi NE 4.6 mph - N/A   Clear
10:54 PM 46.0 °F 43.1 °F 39.9 °F 79% 30.22 in 10.0 mi ENE 5.8 mph - N/A   Clear
11:54 PM 44.1 °F 42.5 °F 39.9 °F 85% 30.21 in 9.0 mi East 3.5 mph - N/A   Clear